Weather History for K7L2 - January, 2014

Change the Weather History Date:

Sunday, January 19, 2014

  Actual Average (KBIS) Record (KBIS)
Temperature  
Mean Temperature 32 °F 13 °F  
Max Temperature 39 °F 23 °F 60 °F (1908)
Min Temperature 26 °F 2 °F -39 °F (1996)
Degree Days  
Heating Degree Days 32 52  
Month to date heating degree days 1000  
Since 1 July heating degree days 4500  
Cooling Degree Days 0 0  
Month to date cooling degree days 0  
Year to date cooling degree days 0  
Moisture  
Dew Point 29 °F    
Average Humidity 85    
Maximum Humidity 93    
Minimum Humidity 65    
Precipitation  
Precipitation 0.00 in 0.01 in 0.23 in (1880)
Month to date precipitation 0.28  
Year to date precipitation 0.28  
Snow  
Snow 0.00 in 0.30 in 3.70 in (1979)
Month to date snowfall 5.9  
Since 1 July snowfall 26.4  
Snow Depth -    
Sea Level Pressure  
Sea Level Pressure 29.66 in    
Wind  
Wind Speed 12 mph (West)    
Max Wind Speed 25 mph    
Max Gust Speed 33 mph    
Visibility 10 miles    
Events      
T = Trace of Precipitation, MM = Missing Value Source: NWS Daily Summary

Daily Weather History Graph

Daily Weather History Graph

Search for Another Location

Airport or City:

Trip Planner

Search our weather history database for the weather conditions in past years. The results will help you decide how hot, cold, wet, or windy it might be!

Date:

Astronomy

Jan. 19, 2014 Rise Set
Actual Time 8:16 AM CST 5:27 PM CST
Civil Twilight 7:43 AM CST 6:00 PM CST
Nautical Twilight 7:06 AM CST 6:37 PM CST
Astronomical Twilight 6:30 AM CST 7:13 PM CST
Moon 9:21 PM CST (1/19) 9:34 AM CST (1/19)
Length of Visible Light 10h 16m
Length of Day
9h 10m
Waning Gibbous, 89% of the Moon is Illuminated
Jan 19
Waning Gibbous
Jan 23
Last Quarter
Jan 30
New
Feb 6
First Quarter
Feb 14
Full

Hourly Weather History & Observations

Time (CST) Temp. Windchill Dew Point Humidity Pressure Visibility Wind Dir Wind Speed Gust Speed Precip Events Conditions
12:15 AM 26.6 °F 16.2 °F 24.8 °F 93% 29.67 in 10.0 mi West 11.5 mph - N/A   Clear
12:35 AM 28.4 °F 18.5 °F 24.8 °F 86% 29.65 in 10.0 mi West 11.5 mph - N/A   Clear
12:55 AM 32.0 °F 22.5 °F 26.6 °F 80% 29.65 in 10.0 mi West 12.7 mph - N/A   Clear
1:15 AM 32.0 °F 22.5 °F 26.6 °F 80% 29.65 in 10.0 mi West 12.7 mph - N/A   Clear
1:35 AM 32.0 °F 23.6 °F 26.6 °F 80% 29.64 in 10.0 mi West 10.4 mph - N/A   Clear
1:55 AM 28.4 °F 23.3 °F 26.6 °F 93% 29.64 in 10.0 mi NW 4.6 mph - N/A   Clear
2:15 AM 32.0 °F 26.4 °F 26.6 °F 80% 29.64 in 10.0 mi WNW 5.8 mph - N/A   Clear
2:35 AM 28.4 °F 20.4 °F 24.8 °F 86% 29.64 in 10.0 mi West 8.1 mph - N/A   Clear
2:55 AM 30.2 °F 21.9 °F 26.6 °F 86% 29.64 in 10.0 mi West 9.2 mph - N/A   Clear
3:15 AM 28.4 °F 18.5 °F 26.6 °F 93% 29.64 in 10.0 mi West 11.5 mph - N/A   Clear
3:35 AM 28.4 °F 19.1 °F 24.8 °F 86% 29.63 in 10.0 mi WSW 10.4 mph - N/A   Clear
3:55 AM 28.4 °F 18.0 °F 26.6 °F 93% 29.61 in 10.0 mi WSW 12.7 mph - N/A   Clear
4:15 AM 30.2 °F 21.9 °F 26.6 °F 86% 29.62 in 10.0 mi West 9.2 mph - N/A   Clear
4:35 AM 28.4 °F 18.0 °F 26.6 °F 93% 29.60 in 10.0 mi West 12.7 mph - N/A   Clear
4:55 AM 28.4 °F 19.1 °F 26.6 °F 93% 29.61 in 10.0 mi WSW 10.4 mph - N/A   Clear
5:15 AM 28.4 °F 18.0 °F 26.6 °F 93% 29.61 in 10.0 mi WSW 12.7 mph - N/A   Clear
5:35 AM 32.0 °F 24.8 °F 26.6 °F 80% 29.60 in 10.0 mi WSW 8.1 mph - N/A   Clear
5:55 AM 28.4 °F 19.1 °F 26.6 °F 93% 29.59 in 10.0 mi West 10.4 mph - N/A   Clear
6:15 AM 28.4 °F 19.1 °F 24.8 °F 86% 29.57 in 10.0 mi West 10.4 mph - N/A   Clear
6:35 AM 28.4 °F 19.1 °F 26.6 °F 93% 29.57 in 10.0 mi WSW 10.4 mph - N/A   Clear
6:55 AM 28.4 °F 19.7 °F 24.8 °F 86% 29.57 in 10.0 mi WSW 9.2 mph - N/A   Clear
7:15 AM 26.6 °F 16.8 °F 24.8 °F 93% 29.56 in 10.0 mi West 10.4 mph - N/A   Clear
7:35 AM 26.6 °F 18.2 °F 24.8 °F 93% 29.55 in 10.0 mi WSW 8.1 mph - N/A   Clear
7:55 AM 28.4 °F 19.1 °F 24.8 °F 86% 29.55 in 10.0 mi West 10.4 mph - N/A   Clear
8:15 AM 26.6 °F 16.2 °F 24.8 °F 93% 29.56 in 10.0 mi WSW 11.5 mph - N/A   Clear
8:35 AM 28.4 °F 18.5 °F 24.8 °F 86% 29.55 in 10.0 mi West 11.5 mph - N/A   Clear
8:55 AM 30.2 °F 21.3 °F 24.8 °F 80% 29.55 in 10.0 mi West 10.4 mph - N/A   Clear
9:15 AM 32.0 °F 23.0 °F 26.6 °F 80% 29.56 in 10.0 mi West 11.5 mph - N/A   Clear
9:35 AM 33.8 °F 25.3 °F 26.6 °F 75% 29.56 in 10.0 mi West 11.5 mph - N/A   Clear
9:55 AM 37.4 °F 27.8 °F 28.4 °F 70% 29.56 in 10.0 mi West 17.3 mph - N/A   Clear
10:15 AM 37.4 °F 27.5 °F 28.4 °F 70% 29.57 in 10.0 mi West 18.4 mph 23.0 mph N/A   Clear
10:35 AM 39.2 °F 29.8 °F 28.4 °F 65% 29.58 in 10.0 mi West 18.4 mph 25.3 mph N/A   Clear
10:55 AM 39.2 °F 30.2 °F 30.2 °F 70% 29.59 in 10.0 mi WNW 17.3 mph 25.3 mph N/A   Clear
11:15 AM 39.2 °F 29.3 °F 30.2 °F 70% 29.60 in 10.0 mi WNW 20.7 mph 28.8 mph N/A   Clear
11:35 AM 39.2 °F 28.3 °F 30.2 °F 70% 29.61 in 10.0 mi WNW 25.3 mph 33.4 mph N/A   Clear
11:55 AM 37.4 °F 26.6 °F 30.2 °F 75% 29.62 in 10.0 mi WNW 21.9 mph 27.6 mph N/A   Clear
12:15 PM 37.4 °F 26.9 °F 30.2 °F 75% 29.62 in 10.0 mi WNW 20.7 mph - N/A   Clear
12:35 PM 37.4 °F 27.2 °F 30.2 °F 75% 29.63 in 10.0 mi WNW 19.6 mph - N/A   Clear
12:55 PM 37.4 °F 27.8 °F 32.0 °F 81% 29.63 in 10.0 mi NW 17.3 mph - N/A   Clear
1:15 PM 37.4 °F 29.8 °F 32.0 °F 81% 29.64 in 10.0 mi WNW 11.5 mph 21.9 mph N/A   Clear
1:35 PM 37.4 °F 27.5 °F 32.0 °F 81% 29.64 in 10.0 mi WNW 18.4 mph - N/A   Clear
1:55 PM 37.4 °F 27.5 °F 32.0 °F 81% 29.64 in 10.0 mi WNW 18.4 mph - N/A   Clear
2:15 PM 37.4 °F 27.2 °F 32.0 °F 81% 29.64 in 10.0 mi NW 19.6 mph 24.2 mph N/A   Clear
2:35 PM 37.4 °F 28.2 °F 32.0 °F 81% 29.65 in 10.0 mi WNW 16.1 mph - N/A   Clear
2:55 PM 37.4 °F 28.5 °F 32.0 °F 81% 29.66 in 10.0 mi WNW 15.0 mph - N/A   Clear
3:15 PM 37.4 °F 28.9 °F 32.0 °F 81% 29.67 in 10.0 mi WNW 13.8 mph - N/A   Clear
3:35 PM 37.4 °F 28.5 °F 32.0 °F 81% 29.67 in 10.0 mi WNW 15.0 mph - N/A   Clear
3:55 PM 37.4 °F 28.2 °F 32.0 °F 81% 29.68 in 10.0 mi West 16.1 mph - N/A   Clear
4:15 PM 37.4 °F 28.5 °F 32.0 °F 81% 29.68 in 10.0 mi WNW 15.0 mph 21.9 mph N/A   Clear
4:35 PM 37.4 °F 28.2 °F 32.0 °F 81% 29.69 in 10.0 mi West 16.1 mph 20.7 mph N/A   Clear
4:55 PM 37.4 °F 28.2 °F 32.0 °F 81% 29.70 in 10.0 mi West 16.1 mph - N/A   Clear
5:15 PM 37.4 °F 28.2 °F 32.0 °F 81% 29.71 in 10.0 mi West 16.1 mph - N/A   Clear
5:35 PM 37.4 °F 27.8 °F 32.0 °F 81% 29.71 in 10.0 mi West 17.3 mph 21.9 mph N/A   Clear
5:55 PM 37.4 °F 28.5 °F 32.0 °F 81% 29.71 in 10.0 mi West 15.0 mph 21.9 mph N/A   Clear
6:15 PM 35.6 °F 26.6 °F 32.0 °F 87% 29.72 in 10.0 mi West 13.8 mph - N/A   Clear
7:15 PM 35.6 °F 27.5 °F 32.0 °F 87% 29.74 in 10.0 mi West 11.5 mph - N/A   Clear
7:35 PM 33.8 °F 27.0 °F 32.0 °F 93% 29.75 in 10.0 mi WNW 8.1 mph - N/A   Clear
7:55 PM 33.8 °F 26.4 °F 30.2 °F 87% 29.75 in 10.0 mi West 9.2 mph - N/A   Clear
8:15 PM 32.0 °F 24.8 °F 30.2 °F 93% 29.75 in 10.0 mi WNW 8.1 mph - N/A   Clear
8:35 PM 32.0 °F 24.2 °F 30.2 °F 93% 29.76 in 10.0 mi WNW 9.2 mph - N/A   Clear
8:55 PM 32.0 °F 24.8 °F 30.2 °F 93% 29.76 in 10.0 mi NW 8.1 mph - N/A   Clear
9:15 PM 32.0 °F 24.8 °F 30.2 °F 93% 29.77 in 10.0 mi NW 8.1 mph - N/A   Partly Cloudy
9:35 PM 32.0 °F 25.6 °F 30.2 °F 93% 29.77 in 10.0 mi WNW 6.9 mph - N/A   Mostly Cloudy
9:55 PM 32.0 °F 25.6 °F 30.2 °F 93% 29.79 in 10.0 mi WNW 6.9 mph - N/A   Overcast
10:15 PM 32.0 °F 25.6 °F 30.2 °F 93% 29.80 in 10.0 mi WNW 6.9 mph - N/A   Overcast
10:35 PM 32.0 °F 25.6 °F 30.2 °F 93% 29.81 in 10.0 mi West 6.9 mph - N/A   Overcast
10:55 PM 32.0 °F 25.6 °F 30.2 °F 93% 29.81 in 10.0 mi West 6.9 mph - N/A   Overcast
11:15 PM 32.0 °F 24.8 °F 30.2 °F 93% 29.81 in 10.0 mi West 8.1 mph - N/A   Mostly Cloudy
11:35 PM 30.2 °F 22.6 °F 28.4 °F 93% 29.81 in 10.0 mi West 8.1 mph - N/A   Mostly Cloudy
11:55 PM 32.0 °F 24.8 °F 30.2 °F 93% 29.81 in 10.0 mi West 8.1 mph - N/A   Mostly Cloudy